Location: Hilton Head Island
(32.2163°N, 80.7526°W)
Time: 01:17:55
(UTC-05:00)

Vanguard 1 - Pass Details

Date: 17 February 2026
Orbit: 653 x 3818 km, 34.2° (Epoch: 5 March)

Event Time Altitude Azimuth Distance (km) Brightness Sun altitude
Rises 12:03:38 0° 172° (S) 3,661 13.8 45.3°
Reaches altitude 10° 12:10:22 10° 125° (SE) 3,485 13.5 45.5°
Maximum altitude 12:10:32 10° 124° (SE) 3,505 13.5 45.5°
Drops below altitude 10° 12:10:42 10° 123° (ESE) 3,524 13.5 45.5°
Sets 12:20:24 0° 82° (E) 5,677 14.0 45.8°
